Date,TemperatureHighF,TemperatureAvgF,TemperatureLowF,DewpointHighF,DewpointAvgF,DewpointLowF,HumidityHigh,HumidityAvg,HumidityLow,PressureMaxIn,PressureMinIn,WindSpeedMaxMPH,WindSpeedAvgMPH,GustSpeedMaxMPH,PrecipitationSumIn
2013-1-1,62.9,41.5,31.9,37.0,32.0,29.0,91,72,32,30.28,30.19,0,0,0,0.00
2013-1-2,59.9,39.9,29.7,40.1,32.1,26.2,92,75,45,30.24,30.13,0,0,0,0.00
2013-1-3,57.2,40.1,30.6,39.7,33.3,27.5,90,78,50,30.27,30.16,0,0,0,0.00
2013-1-4,60.4,42.3,33.4,41.7,35.5,30.4,91,78,48,30.29,30.18,0,0,0,0.00
2013-1-5,50.7,42.9,33.7,43.9,38.9,30.2,92,86,75,30.25,30.06,0,0,0,0.41
2013-1-6,56.5,45.2,38.3,46.8,41.0,35.3,92,85,64,30.19,30.06,0,0,0,0.01
2013-1-7,62.2,46.6,36.1,50.7,41.4,33.5,91,83,63,30.25,30.15,0,0,0,0.01
2013-1-8,62.8,48.0,39.3,50.1,43.0,36.6,92,83,62,30.23,30.12,0,0,0,0.00
2013-1-9,50.2,44.4,39.8,46.9,40.2,33.7,91,85,75,30.15,29.97,0,0,0,0.02
2013-1-10,53.0,41.0,32.0,36.7,32.0,27.6,90,72,47,30.20,30.06,0,0,0,0.00
2013-1-11,55.5,41.4,33.6,38.3,32.2,28.1,82,70,50,30.25,30.11,0,0,0,0.00
2013-1-12,53.3,39.0,30.1,34.6,29.3,25.3,88,70,41,30.25,30.13,0,0,0,0.00
2013-1-13,53.5,37.2,26.1,35.1,25.8,14.3,88,66,29,30.26,30.18,0,0,0,0.00
2013-1-14,58.1,40.8,28.8,30.5,23.6,13.6,82,53,30,30.40,30.24,0,0,0,0.00
2013-1-15,57.1,39.3,29.7,35.8,30.4,26.0,92,72,41,30.48,30.39,0,0,0,0.00
2013-1-16,62.2,40.5,29.5,39.6,32.1,26.1,92,74,42,30.45,30.27,0,0,0,0.00
2013-1-17,66.4,42.3,30.4,45.1,34.7,27.5,92,76,42,30.27,30.16,0,0,0,0.00
2013-1-18,67.9,43.9,31.6,43.4,35.8,28.7,91,76,39,30.23,30.14,0,0,0,0.00
2013-1-19,67.8,45.2,31.9,43.5,36.1,29.0,95,73,39,30.25,30.16,0,0,0,0.00
2013-1-20,67.4,44.3,32.3,42.2,34.8,28.9,90,72,38,30.23,30.12,0,0,0,0.00
2013-1-21,67.9,45.1,32.1,44.5,35.5,28.1,87,71,38,30.18,30.08,0,0,0,0.00
2013-1-22,66.9,47.0,33.4,45.2,37.1,30.2,90,71,40,30.11,29.98,0,0,0,0.00
2013-1-23,53.0,49.3,47.5,46.7,43.5,38.1,91,81,68,30.09,29.95,0,0,0,0.44
2013-1-24,59.0,51.5,47.8,54.5,48.4,45.3,92,89,80,30.18,30.06,0,0,0,0.01
2013-1-25,60.8,53.6,47.0,53.9,49.5,43.9,95,86,74,30.19,30.04,0,0,0,0.00
2013-1-26,60.8,48.9,39.2,46.9,40.1,33.6,91,73,46,30.06,29.96,0,0,0,0.00
2013-1-27,58.4,43.9,31.8,38.8,34.0,28.4,90,70,43,30.18,30.05,0,0,0,0.00
2013-1-28,59.6,47.5,39.3,40.9,37.2,33.4,83,68,48,30.28,30.16,0,0,0,0.00
2013-1-29,66.6,50.0,38.0,44.1,38.9,33.0,85,67,42,30.35,30.26,0,0,0,0.00
2013-1-30,71.0,52.4,41.4,47.1,41.1,36.6,83,67,39,30.33,30.25,0,0,0,0.00
2013-1-31,70.5,49.2,37.5,49.1,40.9,34.4,91,75,45,30.29,30.18,0,0,0,0.00